Time,TemperatureF,DewpointF,PressureIn,WindDirection,WindDirectionDegrees,WindSpeedMPH,WindSpeedGustMPH,Humidity,HourlyPrecipIn,Conditions,Clouds,dailyrainin,SoftwareType,DateUTC
2013-05-29 00:01:00,72.2,59.8,30.05,WSW,254,0.0,5.0,65,0.00,,,0.00,WeatherCatV1.02B3,2013-05-29 05:01:00,
2013-05-29 00:06:00,72.1,60.1,30.05,West,269,0.0,2.0,66,0.00,,,0.00,WeatherCatV1.02B3,2013-05-29 05:06:00,
2013-05-29 00:11:00,72.0,60.0,30.04,WNW,300,0.0,3.0,66,0.00,,,0.00,WeatherCatV1.02B3,2013-05-29 05:11:00,
2013-05-29 00:16:00,71.9,60.3,30.04,WNW,284,0.0,1.0,67,0.00,,,0.00,WeatherCatV1.02B3,2013-05-29 05:16:00,
2013-05-29 00:21:00,71.8,61.1,30.04,West,278,4.0,4.0,69,0.00,,,0.00,WeatherCatV1.02B3,2013-05-29 05:21:00,
2013-05-29 00:26:00,71.8,61.9,30.03,West,275,0.0,3.0,71,0.00,,,0.00,WeatherCatV1.02B3,2013-05-29 05:26:00,
2013-05-29 00:31:00,71.9,62.0,30.03,West,267,0.0,5.0,71,0.00,,,0.00,WeatherCatV1.02B3,2013-05-29 05:31:00,
2013-05-29 00:36:00,71.9,62.0,30.04,West,266,0.0,2.0,71,0.00,,,0.00,WeatherCatV1.02B3,2013-05-29 05:36:00,
2013-05-29 00:41:00,71.8,62.3,30.03,WSW,247,0.0,3.0,72,0.00,,,0.00,WeatherCatV1.02B3,2013-05-29 05:41:00,
2013-05-29 00:46:00,71.7,62.2,30.03,West,269,0.0,3.0,72,0.00,,,0.00,WeatherCatV1.02B3,2013-05-29 05:46:00,
2013-05-29 00:51:00,71.6,62.5,30.03,West,277,0.0,0.0,73,0.00,,,0.00,WeatherCatV1.02B3,2013-05-29 05:51:00,
2013-05-29 00:56:00,71.4,62.3,30.03,WNW,287,0.0,2.0,73,0.00,,,0.00,WeatherCatV1.02B3,2013-05-29 05:56:00,
2013-05-29 01:01:00,71.3,63.0,30.03,West,280,0.0,1.0,75,0.00,,,0.00,WeatherCatV1.02B3,2013-05-29 06:01:00,
2013-05-29 01:06:00,71.1,63.1,30.02,West,259,0.0,2.0,76,0.00,,,0.00,WeatherCatV1.02B3,2013-05-29 06:06:00,
2013-05-29 01:11:00,71.0,63.4,30.02,WNW,283,0.0,1.0,77,0.00,,,0.00,WeatherCatV1.02B3,2013-05-29 06:11:00,
2013-05-29 01:16:00,70.9,63.7,30.02,West,277,0.0,1.0,78,0.00,,,0.00,WeatherCatV1.02B3,2013-05-29 06:16:00,
2013-05-29 01:21:00,70.8,63.6,30.02,WNW,286,0.0,3.0,78,0.00,,,0.00,WeatherCatV1.02B3,2013-05-29 06:21:00,
2013-05-29 01:26:00,70.8,64.0,30.02,NW,325,0.0,5.0,79,0.00,,,0.00,WeatherCatV1.02B3,2013-05-29 06:26:00,
2013-05-29 01:31:00,70.6,63.8,30.02,WNW,288,0.0,2.0,79,0.00,,,0.00,WeatherCatV1.02B3,2013-05-29 06:31:00,
2013-05-29 01:36:00,70.5,64.0,30.02,West,280,0.0,3.0,80,0.00,,,0.00,WeatherCatV1.02B3,2013-05-29 06:36:00,
2013-05-29 01:41:00,70.4,64.3,30.02,West,280,0.0,2.0,81,0.00,,,0.00,WeatherCatV1.02B3,2013-05-29 06:41:00,
2013-05-29 01:46:00,70.3,64.2,30.02,WNW,284,0.0,2.0,81,0.00,,,0.00,WeatherCatV1.02B3,2013-05-29 06:46:00,
2013-05-29 01:51:00,70.1,64.3,30.02,WSW,258,2.0,4.0,82,0.00,,,0.00,WeatherCatV1.02B3,2013-05-29 06:51:00,
2013-05-29 01:56:00,70.1,64.7,30.02,West,267,0.0,2.0,83,0.00,,,0.00,WeatherCatV1.02B3,2013-05-29 06:56:00,
2013-05-29 02:01:00,69.9,64.5,30.02,West,277,0.0,1.0,83,0.00,,,0.00,WeatherCatV1.02B3,2013-05-29 07:01:00,
2013-05-29 02:06:00,69.9,64.5,30.02,West,259,0.0,3.0,83,0.00,,,0.00,WeatherCatV1.02B3,2013-05-29 07:06:00,
2013-05-29 02:11:00,69.8,65.1,30.02,WNW,284,0.0,0.0,85,0.00,,,0.00,WeatherCatV1.02B3,2013-05-29 07:11:00,
2013-05-29 02:16:00,69.7,64.6,30.02,West,279,0.0,1.0,84,0.00,,,0.00,WeatherCatV1.02B3,2013-05-29 07:16:00,
2013-05-29 02:21:00,69.7,65.0,30.02,WNW,288,0.0,4.0,85,0.00,,,0.00,WeatherCatV1.02B3,2013-05-29 07:21:00,
2013-05-29 02:26:00,69.7,65.0,30.02,WNW,286,0.0,1.0,85,0.00,,,0.00,WeatherCatV1.02B3,2013-05-29 07:26:00,
2013-05-29 02:31:00,69.6,65.2,30.02,WNW,285,0.0,1.0,86,0.00,,,0.00,WeatherCatV1.02B3,2013-05-29 07:31:00,
2013-05-29 02:36:00,69.6,65.2,30.02,WSW,258,1.0,2.0,86,0.00,,,0.00,WeatherCatV1.02B3,2013-05-29 07:36:00,
2013-05-29 02:41:00,69.6,65.2,30.02,West,259,0.0,1.0,86,0.00,,,0.00,WeatherCatV1.02B3,2013-05-29 07:41:00,
2013-05-29 02:46:00,69.5,65.5,30.02,West,259,0.0,1.0,87,0.00,,,0.00,WeatherCatV1.02B3,2013-05-29 07:46:00,
2013-05-29 02:51:00,69.5,65.5,30.02,West,259,0.0,0.0,87,0.00,,,0.00,WeatherCatV1.02B3,2013-05-29 07:51:00,
2013-05-29 02:56:00,69.4,65.4,30.02,West,259,0.0,2.0,87,0.00,,,0.00,WeatherCatV1.02B3,2013-05-29 07:56:00,
2013-05-29 03:01:00,69.3,65.3,30.02,West,259,0.0,2.0,87,0.00,,,0.00,WeatherCatV1.02B3,2013-05-29 08:01:00,
2013-05-29 03:06:00,69.3,65.3,30.02,West,259,0.0,0.0,87,0.00,,,0.00,WeatherCatV1.02B3,2013-05-29 08:06:00,
2013-05-29 03:11:00,69.3,65.6,30.02,West,259,0.0,1.0,88,0.00,,,0.00,WeatherCatV1.02B3,2013-05-29 08:11:00,
2013-05-29 03:16:00,69.3,65.6,30.02,West,259,0.0,0.0,88,0.00,,,0.00,WeatherCatV1.02B3,2013-05-29 08:16:00,
2013-05-29 03:21:00,69.3,65.6,30.03,West,259,1.0,1.0,88,0.00,,,0.00,WeatherCatV1.02B3,2013-05-29 08:21:00,
2013-05-29 03:26:00,69.3,65.9,30.03,West,259,0.0,0.0,89,0.00,,,0.00,WeatherCatV1.02B3,2013-05-29 08:26:00,
2013-05-29 03:31:00,69.3,65.9,30.03,West,259,0.0,2.0,89,0.00,,,0.00,WeatherCatV1.02B3,2013-05-29 08:31:00,
2013-05-29 03:36:00,69.3,65.9,30.03,West,259,0.0,0.0,89,0.00,,,0.00,WeatherCatV1.02B3,2013-05-29 08:36:00,
2013-05-29 03:41:00,69.3,65.9,30.03,West,259,0.0,0.0,89,0.00,,,0.00,WeatherCatV1.02B3,2013-05-29 08:41:00,
2013-05-29 03:46:00,69.2,65.8,30.03,West,259,1.0,1.0,89,0.00,,,0.00,WeatherCatV1.02B3,2013-05-29 08:46:00,
2013-05-29 03:51:00,69.2,65.8,30.03,West,259,0.0,0.0,89,0.00,,,0.00,WeatherCatV1.02B3,2013-05-29 08:51:00,
2013-05-29 03:56:00,69.1,65.7,30.03,West,259,0.0,1.0,89,0.00,,,0.00,WeatherCatV1.02B3,2013-05-29 08:56:00,
2013-05-29 04:01:00,69.0,65.9,30.03,West,259,0.0,0.0,90,0.00,,,0.00,WeatherCatV1.02B3,2013-05-29 09:01:00,
2013-05-29 04:06:00,69.0,65.9,30.03,West,259,0.0,0.0,90,0.00,,,0.00,WeatherCatV1.02B3,2013-05-29 09:06:00,
2013-05-29 04:11:00,68.9,65.8,30.03,West,259,0.0,0.0,90,0.00,,,0.00,WeatherCatV1.02B3,2013-05-29 09:11:00,
2013-05-29 04:16:00,68.8,65.7,30.03,West,259,0.0,0.0,90,0.00,,,0.00,WeatherCatV1.02B3,2013-05-29 09:16:00,
2013-05-29 04:21:00,68.7,65.6,30.03,West,259,0.0,0.0,90,0.00,,,0.00,WeatherCatV1.02B3,2013-05-29 09:21:00,
2013-05-29 04:26:00,68.6,65.5,30.02,West,259,0.0,0.0,90,0.00,,,0.00,WeatherCatV1.02B3,2013-05-29 09:26:00,
2013-05-29 04:31:00,68.6,65.9,30.02,West,259,0.0,1.0,91,0.00,,,0.00,WeatherCatV1.02B3,2013-05-29 09:31:00,
2013-05-29 04:36:00,68.7,66.0,30.02,West,259,0.0,0.0,91,0.00,,,0.00,WeatherCatV1.02B3,2013-05-29 09:36:00,
2013-05-29 04:41:00,68.7,66.0,30.02,West,259,0.0,2.0,91,0.00,,,0.00,WeatherCatV1.02B3,2013-05-29 09:41:00,
2013-05-29 04:46:00,68.8,66.1,30.02,West,259,0.0,0.0,91,0.00,,,0.00,WeatherCatV1.02B3,2013-05-29 09:46:00,
2013-05-29 04:51:00,69.0,66.6,30.03,West,259,0.0,2.0,92,0.00,,,0.00,WeatherCatV1.02B3,2013-05-29 09:51:00,
2013-05-29 04:56:00,69.1,66.7,30.03,West,259,0.0,0.0,92,0.00,,,0.00,WeatherCatV1.02B3,2013-05-29 09:56:00,
2013-05-29 05:01:00,69.2,66.8,30.03,West,259,0.0,1.0,92,0.00,,,0.00,WeatherCatV1.02B3,2013-05-29 10:01:00,
2013-05-29 05:06:00,69.4,67.0,30.03,WSW,254,4.0,5.0,92,0.00,,,0.00,WeatherCatV1.02B3,2013-05-29 10:06:00,
2013-05-29 05:11:00,69.7,67.6,30.03,WSW,252,4.0,4.0,93,0.00,,,0.00,WeatherCatV1.02B3,2013-05-29 10:11:00,
2013-05-29 05:16:00,69.9,67.8,30.03,WSW,253,0.0,2.0,93,0.00,,,0.00,WeatherCatV1.02B3,2013-05-29 10:16:00,
2013-05-29 05:21:00,70.0,67.9,30.03,WSW,252,0.0,1.0,93,0.00,,,0.00,WeatherCatV1.02B3,2013-05-29 10:21:00,
2013-05-29 05:26:00,70.1,68.0,30.03,West,268,0.0,1.0,93,0.00,,,0.00,WeatherCatV1.02B3,2013-05-29 10:26:00,
2013-05-29 05:31:00,70.1,68.0,30.03,WSW,257,0.0,1.0,93,0.00,,,0.00,WeatherCatV1.02B3,2013-05-29 10:31:00,
2013-05-29 05:36:00,70.2,68.1,30.04,WSW,258,0.0,0.0,93,0.00,,,0.00,WeatherCatV1.02B3,2013-05-29 10:36:00,
2013-05-29 05:41:00,70.3,68.2,30.04,West,259,0.0,2.0,93,0.00,,,0.00,WeatherCatV1.02B3,2013-05-29 10:41:00,
2013-05-29 05:46:00,70.3,68.2,30.04,West,260,0.0,5.0,93,0.00,,,0.00,WeatherCatV1.02B3,2013-05-29 10:46:00,
2013-05-29 05:51:00,70.4,68.3,30.04,West,260,1.0,1.0,93,0.00,,,0.00,WeatherCatV1.02B3,2013-05-29 10:51:00,
2013-05-29 05:56:00,70.4,68.3,30.04,ESE,109,0.0,0.0,93,0.00,,,0.00,WeatherCatV1.02B3,2013-05-29 10:56:00,
2013-05-29 06:01:00,70.5,68.4,30.04,ESE,110,0.0,0.0,93,0.00,,,0.00,WeatherCatV1.02B3,2013-05-29 11:01:00,
2013-05-29 06:06:00,70.6,68.5,30.04,West,261,0.0,1.0,93,0.00,,,0.00,WeatherCatV1.02B3,2013-05-29 11:06:00,
2013-05-29 06:11:00,70.6,68.5,30.04,West,264,0.0,2.0,93,0.00,,,0.00,WeatherCatV1.02B3,2013-05-29 11:11:00,
2013-05-29 06:16:00,70.6,68.5,30.04,WNW,283,0.0,2.0,93,0.00,,,0.00,WeatherCatV1.02B3,2013-05-29 11:16:00,
2013-05-29 06:21:00,70.6,68.5,30.04,West,276,3.0,3.0,93,0.00,,,0.00,WeatherCatV1.02B3,2013-05-29 11:21:00,
2013-05-29 06:26:00,70.7,68.6,30.04,West,276,0.0,1.0,93,0.00,,,0.00,WeatherCatV1.02B3,2013-05-29 11:26:00,
2013-05-29 06:31:00,70.7,68.6,30.04,North,355,0.0,0.0,93,0.00,,,0.00,WeatherCatV1.02B3,2013-05-29 11:31:00,
2013-05-29 06:36:00,70.7,68.6,30.05,NNW,346,0.0,0.0,93,0.00,,,0.00,WeatherCatV1.02B3,2013-05-29 11:36:00,
2013-05-29 06:41:00,70.7,68.6,30.05,WSW,255,0.0,2.0,93,0.00,,,0.00,WeatherCatV1.02B3,2013-05-29 11:41:00,
2013-05-29 06:46:00,70.8,68.7,30.05,West,261,0.0,1.0,93,0.00,,,0.00,WeatherCatV1.02B3,2013-05-29 11:46:00,
2013-05-29 06:51:00,70.9,68.8,30.05,WSW,258,0.0,2.0,93,0.00,,,0.00,WeatherCatV1.02B3,2013-05-29 11:51:00,
2013-05-29 06:56:00,71.0,68.9,30.05,West,267,2.0,4.0,93,0.00,,,0.00,WeatherCatV1.02B3,2013-05-29 11:56:00,
2013-05-29 07:01:00,71.2,69.1,30.05,WSW,258,0.0,0.0,93,0.00,,,0.00,WeatherCatV1.02B3,2013-05-29 12:01:00,
2013-05-29 07:06:00,71.3,68.8,30.05,West,261,1.0,5.0,92,0.00,,,0.00,WeatherCatV1.02B3,2013-05-29 12:06:00,
2013-05-29 07:11:00,71.5,69.0,30.05,West,261,0.0,3.0,92,0.00,,,0.00,WeatherCatV1.02B3,2013-05-29 12:11:00,
2013-05-29 07:16:00,71.7,69.2,30.06,West,271,2.0,2.0,92,0.00,,,0.00,WeatherCatV1.02B3,2013-05-29 12:16:00,
2013-05-29 07:21:00,71.9,69.4,30.06,WSW,247,1.0,3.0,92,0.00,,,0.00,WeatherCatV1.02B3,2013-05-29 12:21:00,
2013-05-29 07:26:00,72.1,69.6,30.06,West,261,0.0,2.0,92,0.00,,,0.00,WeatherCatV1.02B3,2013-05-29 12:26:00,
2013-05-29 07:30:00,72.3,69.5,30.06,WNW,290,0.0,8.0,91,0.00,,,0.00,WeatherCatV1.02B3,2013-05-29 12:30:00,
2013-05-29 07:35:00,72.5,69.7,30.06,WNW,296,0.0,2.0,91,0.00,,,0.00,WeatherCatV1.02B3,2013-05-29 12:35:00,
2013-05-29 07:40:00,72.7,69.6,30.06,West,279,0.0,2.0,90,0.00,,,0.00,WeatherCatV1.02B3,2013-05-29 12:40:00,
2013-05-29 07:45:00,73.0,69.9,30.06,WNW,283,0.0,4.0,90,0.00,,,0.00,WeatherCatV1.02B3,2013-05-29 12:45:00,
2013-05-29 07:50:00,73.2,69.8,30.06,WSW,257,0.0,4.0,89,0.00,,,0.00,WeatherCatV1.02B3,2013-05-29 12:50:00,
2013-05-29 07:55:00,73.6,70.1,30.07,West,278,2.0,5.0,89,0.00,,,0.00,WeatherCatV1.02B3,2013-05-29 12:55:00,
2013-05-29 08:00:00,73.8,70.0,30.07,West,273,1.0,4.0,88,0.00,,,0.00,WeatherCatV1.02B3,2013-05-29 13:00:00,
2013-05-29 08:05:00,73.9,70.1,30.07,West,269,1.0,3.0,88,0.00,,,0.00,WeatherCatV1.02B3,2013-05-29 13:05:00,
2013-05-29 08:10:00,74.0,69.9,30.07,West,278,0.0,1.0,87,0.00,,,0.00,WeatherCatV1.02B3,2013-05-29 13:10:00,
2013-05-29 08:15:00,74.1,70.0,30.07,West,260,0.0,7.0,87,0.00,,,0.00,WeatherCatV1.02B3,2013-05-29 13:15:00,
2013-05-29 08:20:00,74.2,70.1,30.07,WNW,284,1.0,5.0,87,0.00,,,0.00,WeatherCatV1.02B3,2013-05-29 13:20:00,
2013-05-29 08:25:00,74.4,70.3,30.07,West,279,0.0,1.0,87,0.00,,,0.00,WeatherCatV1.02B3,2013-05-29 13:25:00,
2013-05-29 08:30:00,74.7,70.2,30.07,West,268,5.0,8.0,86,0.00,,,0.00,WeatherCatV1.02B3,2013-05-29 13:30:00,
2013-05-29 08:35:00,74.9,70.4,30.07,West,279,1.0,4.0,86,0.00,,,0.00,WeatherCatV1.02B3,2013-05-29 13:35:00,
2013-05-29 08:40:00,75.0,70.2,30.07,West,280,0.0,3.0,85,0.00,,,0.00,WeatherCatV1.02B3,2013-05-29 13:40:00,
2013-05-29 08:45:00,75.1,70.3,30.07,West,260,1.0,3.0,85,0.00,,,0.00,WeatherCatV1.02B3,2013-05-29 13:45:00,
2013-05-29 08:50:00,75.2,70.4,30.07,West,270,0.0,5.0,85,0.00,,,0.00,WeatherCatV1.02B3,2013-05-29 13:50:00,
2013-05-29 08:55:00,75.5,70.7,30.07,West,279,0.0,2.0,85,0.00,,,0.00,WeatherCatV1.02B3,2013-05-29 13:55:00,
2013-05-29 09:00:00,75.9,71.1,30.07,West,279,0.0,1.0,85,0.00,,,0.00,WeatherCatV1.02B3,2013-05-29 14:00:00,
2013-05-29 09:05:00,76.3,71.1,30.07,WNW,289,2.0,4.0,84,0.00,,,0.00,WeatherCatV1.02B3,2013-05-29 14:05:00,
2013-05-29 09:10:00,76.5,70.9,30.07,WSW,257,0.0,7.0,83,0.00,,,0.00,WeatherCatV1.02B3,2013-05-29 14:10:00,
2013-05-29 09:15:00,76.7,70.8,30.07,West,277,1.0,3.0,82,0.00,,,0.00,WeatherCatV1.02B3,2013-05-29 14:15:00,
2013-05-29 09:20:00,76.9,71.0,30.07,WNW,296,1.0,3.0,82,0.00,,,0.00,WeatherCatV1.02B3,2013-05-29 14:20:00,
2013-05-29 09:25:00,77.3,71.0,30.07,West,269,0.0,8.0,81,0.00,,,0.00,WeatherCatV1.02B3,2013-05-29 14:25:00,
2013-05-29 09:30:00,77.8,71.5,30.07,West,274,3.0,3.0,81,0.00,,,0.00,WeatherCatV1.02B3,2013-05-29 14:30:00,
2013-05-29 09:35:00,78.1,71.0,30.06,West,261,3.0,10.0,79,0.00,,,0.00,WeatherCatV1.02B3,2013-05-29 14:35:00,
2013-05-29 09:40:00,78.2,71.1,30.07,West,259,4.0,9.0,79,0.00,,,0.00,WeatherCatV1.02B3,2013-05-29 14:40:00,
2013-05-29 09:45:00,78.3,71.2,30.06,WSW,248,0.0,2.0,79,0.00,,,0.00,WeatherCatV1.02B3,2013-05-29 14:45:00,
2013-05-29 09:50:00,78.4,71.7,30.06,WNW,288,0.0,2.0,80,0.00,,,0.00,WeatherCatV1.02B3,2013-05-29 14:50:00,
2013-05-29 09:55:00,78.7,71.6,30.06,WSW,250,0.0,5.0,79,0.00,,,0.00,WeatherCatV1.02B3,2013-05-29 14:55:00,
2013-05-29 10:00:00,79.2,72.1,30.05,WSW,252,4.0,6.0,79,0.00,,,0.00,WeatherCatV1.02B3,2013-05-29 15:00:00,
2013-05-29 10:05:00,79.5,72.0,30.06,West,260,0.0,4.0,78,0.00,,,0.00,WeatherCatV1.02B3,2013-05-29 15:05:00,
2013-05-29 10:10:00,79.9,72.0,30.06,West,259,0.0,4.0,77,0.00,,,0.00,WeatherCatV1.02B3,2013-05-29 15:10:00,
2013-05-29 10:15:00,80.3,72.4,30.06,West,267,2.0,6.0,77,0.00,,,0.00,WeatherCatV1.02B3,2013-05-29 15:15:00,
2013-05-29 10:20:00,80.7,72.0,30.06,WNW,297,1.0,7.0,75,0.00,,,0.00,WeatherCatV1.02B3,2013-05-29 15:20:00,
2013-05-29 10:25:00,80.6,71.1,30.06,WNW,296,0.0,4.0,73,0.00,,,0.00,WeatherCatV1.02B3,2013-05-29 15:25:00,
2013-05-29 10:30:00,80.6,71.5,30.05,West,266,3.0,5.0,74,0.00,,,0.00,WeatherCatV1.02B3,2013-05-29 15:30:00,
2013-05-29 10:35:00,80.9,71.8,30.05,WSW,253,0.0,5.0,74,0.00,,,0.00,WeatherCatV1.02B3,2013-05-29 15:35:00,
2013-05-29 10:40:00,81.2,71.3,30.05,WNW,284,1.0,5.0,72,0.00,,,0.00,WeatherCatV1.02B3,2013-05-29 15:40:00,
2013-05-29 10:45:00,81.6,72.1,30.05,West,269,5.0,7.0,73,0.00,,,0.00,WeatherCatV1.02B3,2013-05-29 15:45:00,
2013-05-29 10:50:00,81.9,72.0,30.05,West,267,0.0,1.0,72,0.00,,,0.00,WeatherCatV1.02B3,2013-05-29 15:50:00,
2013-05-29 10:55:00,82.4,72.0,30.05,West,273,2.0,7.0,71,0.00,,,0.00,WeatherCatV1.02B3,2013-05-29 15:55:00,
2013-05-29 11:00:00,82.4,72.0,30.06,NW,315,1.0,6.0,71,0.00,,,0.00,WeatherCatV1.02B3,2013-05-29 16:00:00,
2013-05-29 11:05:00,82.3,71.9,30.06,WNW,292,2.0,4.0,71,0.00,,,0.00,WeatherCatV1.02B3,2013-05-29 16:05:00,
2013-05-29 11:10:00,82.3,71.9,30.06,WSW,248,3.0,6.0,71,0.00,,,0.00,WeatherCatV1.02B3,2013-05-29 16:10:00,
2013-05-29 11:15:00,82.6,72.2,30.06,West,266,1.0,2.0,71,0.00,,,0.00,WeatherCatV1.02B3,2013-05-29 16:15:00,
2013-05-29 11:20:00,82.9,72.5,30.06,West,262,0.0,5.0,71,0.00,,,0.00,WeatherCatV1.02B3,2013-05-29 16:20:00,
2013-05-29 11:25:00,83.3,72.5,30.05,WSW,237,4.0,7.0,70,0.00,,,0.00,WeatherCatV1.02B3,2013-05-29 16:25:00,
2013-05-29 11:30:00,83.9,72.6,30.05,West,263,0.0,4.0,69,0.00,,,0.00,WeatherCatV1.02B3,2013-05-29 16:30:00,
2013-05-29 11:35:00,84.2,72.0,30.05,WSW,243,1.0,9.0,67,0.00,,,0.00,WeatherCatV1.02B3,2013-05-29 16:35:00,
2013-05-29 11:40:00,84.4,72.7,30.05,NW,305,2.0,2.0,68,0.00,,,0.00,WeatherCatV1.02B3,2013-05-29 16:40:00,
2013-05-29 11:45:00,84.5,72.3,30.05,West,269,3.0,11.0,67,0.00,,,0.00,WeatherCatV1.02B3,2013-05-29 16:45:00,
2013-05-29 11:50:00,84.7,72.9,30.05,West,270,2.0,6.0,68,0.00,,,0.00,WeatherCatV1.02B3,2013-05-29 16:50:00,
2013-05-29 11:55:00,84.8,72.1,30.05,WNW,303,0.0,4.0,66,0.00,,,0.00,WeatherCatV1.02B3,2013-05-29 16:55:00,
2013-05-29 12:00:00,85.1,72.9,30.05,WSW,245,5.0,5.0,67,0.00,,,0.00,WeatherCatV1.02B3,2013-05-29 17:00:00,
2013-05-29 12:05:00,85.4,73.2,30.04,WSW,250,0.0,4.0,67,0.00,,,0.00,WeatherCatV1.02B3,2013-05-29 17:05:00,
2013-05-29 12:10:00,85.4,71.8,30.04,SW,223,4.0,6.0,64,0.00,,,0.00,WeatherCatV1.02B3,2013-05-29 17:10:00,
2013-05-29 12:15:00,85.1,72.0,30.04,West,263,4.0,6.0,65,0.00,,,0.00,WeatherCatV1.02B3,2013-05-29 17:15:00,
2013-05-29 12:20:00,84.9,72.2,30.04,WSW,255,1.0,6.0,66,0.00,,,0.00,WeatherCatV1.02B3,2013-05-29 17:20:00,
2013-05-29 12:25:00,85.1,72.0,30.03,West,279,0.0,2.0,65,0.00,,,0.00,WeatherCatV1.02B3,2013-05-29 17:25:00,
2013-05-29 12:30:00,85.2,72.1,30.03,West,270,0.0,3.0,65,0.00,,,0.00,WeatherCatV1.02B3,2013-05-29 17:30:00,
2013-05-29 12:35:00,85.2,72.1,30.03,West,260,0.0,2.0,65,0.00,,,0.00,WeatherCatV1.02B3,2013-05-29 17:35:00,
2013-05-29 12:40:00,85.4,73.2,30.03,West,270,1.0,4.0,67,0.00,,,0.00,WeatherCatV1.02B3,2013-05-29 17:40:00,
2013-05-29 12:45:00,85.9,73.2,30.03,WSW,250,4.0,5.0,66,0.00,,,0.00,WeatherCatV1.02B3,2013-05-29 17:45:00,
2013-05-29 12:50:00,86.2,72.6,30.03,WSW,252,0.0,4.0,64,0.00,,,0.00,WeatherCatV1.02B3,2013-05-29 17:50:00,
2013-05-29 12:55:00,86.3,73.1,30.03,WSW,252,3.0,5.0,65,0.00,,,0.00,WeatherCatV1.02B3,2013-05-29 17:55:00,
2013-05-29 13:00:00,86.3,72.2,30.03,WSW,252,1.0,8.0,63,0.00,,,0.00,WeatherCatV1.02B3,2013-05-29 18:00:00,
2013-05-29 13:05:00,85.9,71.8,30.03,WSW,245,3.0,3.0,63,0.00,,,0.00,WeatherCatV1.02B3,2013-05-29 18:05:00,
2013-05-29 13:10:00,85.6,72.0,30.03,West,281,0.0,6.0,64,0.00,,,0.00,WeatherCatV1.02B3,2013-05-29 18:10:00,
2013-05-29 13:15:00,85.7,72.5,30.03,West,266,1.0,1.0,65,0.00,,,0.00,WeatherCatV1.02B3,2013-05-29 18:15:00,
2013-05-29 13:20:00,86.7,73.0,30.03,West,263,5.0,8.0,64,0.00,,,0.00,WeatherCatV1.02B3,2013-05-29 18:20:00,
2013-05-29 13:25:00,87.0,72.4,30.02,WSW,252,5.0,7.0,62,0.00,,,0.00,WeatherCatV1.02B3,2013-05-29 18:25:00,
2013-05-29 13:30:00,87.2,73.0,30.02,West,264,2.0,6.0,63,0.00,,,0.00,WeatherCatV1.02B3,2013-05-29 18:30:00,
2013-05-29 13:35:00,87.3,72.2,30.02,West,271,1.0,8.0,61,0.00,,,0.00,WeatherCatV1.02B3,2013-05-29 18:35:00,
2013-05-29 13:40:00,87.0,72.4,30.02,WSW,256,0.0,5.0,62,0.00,,,0.00,WeatherCatV1.02B3,2013-05-29 18:40:00,
2013-05-29 13:45:00,87.0,72.4,30.02,West,273,2.0,5.0,62,0.00,,,0.00,WeatherCatV1.02B3,2013-05-29 18:45:00,
2013-05-29 13:50:00,87.7,72.1,30.01,West,259,0.0,6.0,60,0.00,,,0.00,WeatherCatV1.02B3,2013-05-29 18:50:00,
2013-05-29 13:55:00,87.8,71.1,30.01,West,259,2.0,10.0,58,0.00,,,0.00,WeatherCatV1.02B3,2013-05-29 18:55:00,
2013-05-29 14:00:00,87.7,72.1,30.01,WNW,282,0.0,5.0,60,0.00,,,0.00,WeatherCatV1.02B3,2013-05-29 19:00:00,
2013-05-29 14:05:00,88.1,71.9,30.01,West,273,2.0,6.0,59,0.00,,,0.00,WeatherCatV1.02B3,2013-05-29 19:05:00,
2013-05-29 14:10:00,87.7,72.1,30.01,WSW,258,0.0,8.0,60,0.00,,,0.00,WeatherCatV1.02B3,2013-05-29 19:10:00,
2013-05-29 14:15:00,87.6,71.5,30.01,WNW,292,1.0,4.0,59,0.00,,,0.00,WeatherCatV1.02B3,2013-05-29 19:15:00,
2013-05-29 14:20:00,87.6,72.0,30.01,West,263,1.0,4.0,60,0.00,,,0.00,WeatherCatV1.02B3,2013-05-29 19:20:00,
2013-05-29 14:25:00,88.2,72.0,30.00,WNW,292,0.0,5.0,59,0.00,,,0.00,WeatherCatV1.02B3,2013-05-29 19:25:00,
2013-05-29 14:30:00,88.3,74.1,30.00,West,259,1.0,4.0,63,0.00,,,0.00,WeatherCatV1.02B3,2013-05-29 19:30:00,
2013-05-29 14:35:00,88.8,73.1,30.00,West,259,0.0,7.0,60,0.00,,,0.00,WeatherCatV1.02B3,2013-05-29 19:35:00,
2013-05-29 14:40:00,88.9,71.7,30.00,WSW,254,3.0,7.0,57,0.00,,,0.00,WeatherCatV1.02B3,2013-05-29 19:40:00,
2013-05-29 14:45:00,88.1,70.9,30.00,WSW,254,4.0,4.0,57,0.00,,,0.00,WeatherCatV1.02B3,2013-05-29 19:45:00,
2013-05-29 14:50:00,87.2,71.1,29.99,West,281,0.0,2.0,59,0.00,,,0.00,WeatherCatV1.02B3,2013-05-29 19:50:00,
2013-05-29 14:55:00,86.5,70.9,29.99,SW,216,0.0,3.0,60,0.00,,,0.00,WeatherCatV1.02B3,2013-05-29 19:55:00,
2013-05-29 15:00:00,86.0,71.4,29.98,WSW,255,1.0,3.0,62,0.00,,,0.00,WeatherCatV1.02B3,2013-05-29 20:00:00,
2013-05-29 15:05:00,85.5,71.0,29.99,West,266,0.0,0.0,62,0.00,,,0.00,WeatherCatV1.02B3,2013-05-29 20:05:00,
2013-05-29 15:10:00,85.1,71.1,29.99,West,262,0.0,4.0,63,0.00,,,0.00,WeatherCatV1.02B3,2013-05-29 20:10:00,
2013-05-29 15:15:00,84.8,71.2,29.99,West,271,0.0,0.0,64,0.00,,,0.00,WeatherCatV1.02B3,2013-05-29 20:15:00,
2013-05-29 15:21:00,84.4,71.3,29.99,WSW,254,0.0,2.0,65,0.00,,,0.00,WeatherCatV1.02B3,2013-05-29 20:21:00,
2013-05-29 15:26:00,84.1,71.5,29.99,West,266,2.0,2.0,66,0.00,,,0.00,WeatherCatV1.02B3,2013-05-29 20:26:00,
2013-05-29 15:31:00,83.8,71.2,29.99,West,265,0.0,3.0,66,0.00,,,0.00,WeatherCatV1.02B3,2013-05-29 20:31:00,
2013-05-29 15:36:00,83.6,71.5,29.99,West,265,0.0,1.0,67,0.00,,,0.00,WeatherCatV1.02B3,2013-05-29 20:36:00,
2013-05-29 15:41:00,83.4,71.7,29.99,West,264,0.0,0.0,68,0.00,,,0.00,WeatherCatV1.02B3,2013-05-29 20:41:00,
2013-05-29 15:46:00,83.2,71.5,29.98,West,263,0.0,1.0,68,0.00,,,0.00,WeatherCatV1.02B3,2013-05-29 20:46:00,
2013-05-29 15:51:00,83.0,71.8,29.98,West,263,0.0,1.0,69,0.00,,,0.00,WeatherCatV1.02B3,2013-05-29 20:51:00,
2013-05-29 15:56:00,82.8,71.6,29.99,West,263,0.0,1.0,69,0.00,,,0.00,WeatherCatV1.02B3,2013-05-29 20:56:00,
2013-05-29 16:01:00,82.7,71.9,29.99,West,263,0.0,0.0,70,0.00,,,0.00,WeatherCatV1.02B3,2013-05-29 21:01:00,
2013-05-29 16:06:00,82.5,71.7,29.99,West,263,0.0,0.0,70,0.00,,,0.00,WeatherCatV1.02B3,2013-05-29 21:06:00,
2013-05-29 16:11:00,82.4,72.0,29.98,West,264,0.0,1.0,71,0.00,,,0.00,WeatherCatV1.02B3,2013-05-29 21:11:00,
2013-05-29 16:16:00,82.3,71.9,29.99,West,263,0.0,0.0,71,0.00,,,0.00,WeatherCatV1.02B3,2013-05-29 21:16:00,
2013-05-29 16:21:00,82.2,72.2,29.99,West,263,0.0,0.0,72,0.00,,,0.00,WeatherCatV1.02B3,2013-05-29 21:21:00,
2013-05-29 16:26:00,82.2,72.2,29.99,West,263,0.0,0.0,72,0.00,,,0.00,WeatherCatV1.02B3,2013-05-29 21:26:00,
2013-05-29 16:31:00,82.2,72.2,29.99,West,263,0.0,0.0,72,0.00,,,0.00,WeatherCatV1.02B3,2013-05-29 21:31:00,
2013-05-29 16:36:00,82.3,72.8,29.99,West,259,0.0,3.0,73,0.00,,,0.00,WeatherCatV1.02B3,2013-05-29 21:36:00,
2013-05-29 16:41:00,82.3,72.8,29.99,West,259,0.0,1.0,73,0.00,,,0.00,WeatherCatV1.02B3,2013-05-29 21:41:00,
2013-05-29 16:46:00,82.5,72.5,29.99,West,259,4.0,4.0,72,0.00,,,0.00,WeatherCatV1.02B3,2013-05-29 21:46:00,
2013-05-29 16:51:00,82.8,72.8,29.99,West,266,0.0,3.0,72,0.00,,,0.00,WeatherCatV1.02B3,2013-05-29 21:51:00,
2013-05-29 16:56:00,83.0,73.0,29.99,West,267,0.0,1.0,72,0.00,,,0.00,WeatherCatV1.02B3,2013-05-29 21:56:00,
2013-05-29 17:01:00,83.3,73.3,29.98,WNW,282,0.0,0.0,72,0.00,,,0.00,WeatherCatV1.02B3,2013-05-29 22:01:00,
2013-05-29 17:06:00,83.8,73.4,29.98,WSW,253,0.0,6.0,71,0.00,,,0.00,WeatherCatV1.02B3,2013-05-29 22:06:00,
2013-05-29 17:11:00,84.8,74.3,29.98,West,261,0.0,0.0,71,0.00,,,0.00,WeatherCatV1.02B3,2013-05-29 22:11:00,
2013-05-29 17:16:00,85.3,73.5,29.97,SW,215,2.0,2.0,68,0.00,,,0.00,WeatherCatV1.02B3,2013-05-29 22:16:00,
2013-05-29 17:21:00,85.2,73.4,29.97,West,272,0.0,2.0,68,0.00,,,0.00,WeatherCatV1.02B3,2013-05-29 22:21:00,
2013-05-29 17:26:00,85.0,73.2,29.97,WNW,288,0.0,2.0,68,0.00,,,0.00,WeatherCatV1.02B3,2013-05-29 22:26:00,
2013-05-29 17:31:00,84.8,73.0,29.97,West,266,2.0,3.0,68,0.00,,,0.00,WeatherCatV1.02B3,2013-05-29 22:31:00,
2013-05-29 17:36:00,84.7,73.4,29.97,WSW,245,0.0,3.0,69,0.00,,,0.00,WeatherCatV1.02B3,2013-05-29 22:36:00,
2013-05-29 17:41:00,84.4,73.1,29.97,WSW,252,4.0,5.0,69,0.00,,,0.00,WeatherCatV1.02B3,2013-05-29 22:41:00,
2013-05-29 17:46:00,84.1,71.9,29.97,WSW,246,1.0,4.0,67,0.00,,,0.00,WeatherCatV1.02B3,2013-05-29 22:46:00,
2013-05-29 17:51:00,84.0,71.4,29.97,West,263,2.0,4.0,66,0.00,,,0.00,WeatherCatV1.02B3,2013-05-29 22:51:00,
2013-05-29 17:56:00,84.0,70.5,29.97,West,264,4.0,5.0,64,0.00,,,0.00,WeatherCatV1.02B3,2013-05-29 22:56:00,
2013-05-29 18:01:00,83.9,70.4,29.98,West,265,0.0,4.0,64,0.00,,,0.00,WeatherCatV1.02B3,2013-05-29 23:01:00,
2013-05-29 18:06:00,83.4,70.4,29.98,WSW,254,1.0,4.0,65,0.00,,,0.00,WeatherCatV1.02B3,2013-05-29 23:06:00,
2013-05-29 18:11:00,82.8,70.3,29.98,NNW,332,0.0,5.0,66,0.00,,,0.00,WeatherCatV1.02B3,2013-05-29 23:11:00,
2013-05-29 18:16:00,82.4,71.2,29.98,West,261,0.0,7.0,69,0.00,,,0.00,WeatherCatV1.02B3,2013-05-29 23:16:00,
2013-05-29 18:21:00,82.0,71.2,29.98,West,265,3.0,4.0,70,0.00,,,0.00,WeatherCatV1.02B3,2013-05-29 23:21:00,
2013-05-29 18:26:00,81.7,71.4,29.98,WSW,257,2.0,6.0,71,0.00,,,0.00,WeatherCatV1.02B3,2013-05-29 23:26:00,
2013-05-29 18:31:00,81.4,71.5,29.98,West,261,0.0,5.0,72,0.00,,,0.00,WeatherCatV1.02B3,2013-05-29 23:31:00,
2013-05-29 18:36:00,81.2,71.7,29.98,WSW,252,0.0,3.0,73,0.00,,,0.00,WeatherCatV1.02B3,2013-05-29 23:36:00,
2013-05-29 18:41:00,81.0,71.9,29.97,WSW,252,0.0,0.0,74,0.00,,,0.00,WeatherCatV1.02B3,2013-05-29 23:41:00,
2013-05-29 18:46:00,80.9,72.2,29.97,WNW,289,0.0,1.0,75,0.00,,,0.00,WeatherCatV1.02B3,2013-05-29 23:46:00,
2013-05-29 18:51:00,80.8,72.1,29.97,West,267,1.0,2.0,75,0.00,,,0.00,WeatherCatV1.02B3,2013-05-29 23:51:00,
2013-05-29 18:56:00,80.8,72.5,29.97,West,281,1.0,5.0,76,0.00,,,0.00,WeatherCatV1.02B3,2013-05-29 23:56:00,
2013-05-29 19:01:00,80.7,72.8,29.97,West,261,0.0,1.0,77,0.00,,,0.00,WeatherCatV1.02B3,2013-05-30 00:01:00,
2013-05-29 19:06:00,80.6,72.7,29.97,West,261,0.0,0.0,77,0.00,,,0.00,WeatherCatV1.02B3,2013-05-30 00:06:00,
2013-05-29 19:11:00,80.6,73.1,29.97,West,259,0.0,0.0,78,0.00,,,0.00,WeatherCatV1.02B3,2013-05-30 00:11:00,
2013-05-29 19:16:00,80.5,73.0,29.97,WSW,240,0.0,2.0,78,0.00,,,0.00,WeatherCatV1.02B3,2013-05-30 00:16:00,
2013-05-29 19:21:00,80.3,72.8,29.98,SW,217,0.0,2.0,78,0.00,,,0.00,WeatherCatV1.02B3,2013-05-30 00:21:00,
2013-05-29 19:26:00,80.0,72.5,29.98,SE,140,0.0,4.0,78,0.00,,,0.00,WeatherCatV1.02B3,2013-05-30 00:26:00,
2013-05-29 19:31:00,79.7,72.6,29.98,SSE,159,0.0,0.0,79,0.00,,,0.00,WeatherCatV1.02B3,2013-05-30 00:31:00,
2013-05-29 19:36:00,79.6,72.5,29.98,SSE,159,1.0,2.0,79,0.00,,,0.00,WeatherCatV1.02B3,2013-05-30 00:36:00,
2013-05-29 19:41:00,79.3,72.6,29.98,SSE,159,0.0,0.0,80,0.00,,,0.00,WeatherCatV1.02B3,2013-05-30 00:41:00,
2013-05-29 19:46:00,79.0,72.3,29.98,West,259,0.0,1.0,80,0.00,,,0.00,WeatherCatV1.02B3,2013-05-30 00:46:00,
2013-05-29 19:51:00,78.9,72.2,29.98,West,259,0.0,1.0,80,0.00,,,0.00,WeatherCatV1.02B3,2013-05-30 00:51:00,
2013-05-29 19:56:00,78.7,72.4,29.98,West,259,0.0,1.0,81,0.00,,,0.00,WeatherCatV1.02B3,2013-05-30 00:56:00,
2013-05-29 20:01:00,78.5,72.2,29.98,SW,228,0.0,1.0,81,0.00,,,0.00,WeatherCatV1.02B3,2013-05-30 01:01:00,
2013-05-29 20:06:00,78.4,72.1,29.98,SW,228,0.0,0.0,81,0.00,,,0.00,WeatherCatV1.02B3,2013-05-30 01:06:00,
2013-05-29 20:11:00,78.2,72.2,29.98,SW,228,0.0,0.0,82,0.00,,,0.00,WeatherCatV1.02B3,2013-05-30 01:11:00,
2013-05-29 20:16:00,78.0,72.0,29.98,SW,228,0.0,0.0,82,0.00,,,0.00,WeatherCatV1.02B3,2013-05-30 01:16:00,
2013-05-29 20:21:00,77.9,71.9,29.98,SW,228,0.0,0.0,82,0.00,,,0.00,WeatherCatV1.02B3,2013-05-30 01:21:00,
2013-05-29 20:26:00,77.8,72.2,29.99,SW,228,0.0,0.0,83,0.00,,,0.00,WeatherCatV1.02B3,2013-05-30 01:26:00,
2013-05-29 20:31:00,77.7,72.1,29.99,SW,228,0.0,0.0,83,0.00,,,0.00,WeatherCatV1.02B3,2013-05-30 01:31:00,
2013-05-29 20:36:00,77.5,71.9,29.99,SW,228,0.0,0.0,83,0.00,,,0.00,WeatherCatV1.02B3,2013-05-30 01:36:00,
2013-05-29 20:41:00,77.3,72.1,29.99,SW,228,0.0,0.0,84,0.00,,,0.00,WeatherCatV1.02B3,2013-05-30 01:41:00,
2013-05-29 20:46:00,77.2,72.0,29.98,SW,228,0.0,0.0,84,0.00,,,0.00,WeatherCatV1.02B3,2013-05-30 01:46:00,
2013-05-29 20:51:00,77.0,71.8,29.99,SW,228,0.0,0.0,84,0.00,,,0.00,WeatherCatV1.02B3,2013-05-30 01:51:00,
2013-05-29 20:56:00,76.9,72.0,29.98,SW,228,0.0,0.0,85,0.00,,,0.00,WeatherCatV1.02B3,2013-05-30 01:56:00,
2013-05-29 21:01:00,76.7,71.8,29.98,SW,228,0.0,0.0,85,0.00,,,0.00,WeatherCatV1.02B3,2013-05-30 02:01:00,
2013-05-29 21:06:00,76.6,71.7,29.99,SW,228,0.0,0.0,85,0.00,,,0.00,WeatherCatV1.02B3,2013-05-30 02:06:00,
2013-05-29 21:11:00,76.5,71.6,29.99,SW,228,0.0,0.0,85,0.00,,,0.00,WeatherCatV1.02B3,2013-05-30 02:11:00,
2013-05-29 21:16:00,76.4,71.9,29.99,SW,228,0.0,0.0,86,0.00,,,0.00,WeatherCatV1.02B3,2013-05-30 02:16:00,
2013-05-29 21:21:00,76.3,71.8,29.99,SW,228,0.0,0.0,86,0.00,,,0.00,WeatherCatV1.02B3,2013-05-30 02:21:00,
2013-05-29 21:26:00,76.1,71.6,29.99,WSW,257,0.0,2.0,86,0.00,,,0.00,WeatherCatV1.02B3,2013-05-30 02:26:00,
2013-05-29 21:31:00,76.0,71.5,30.00,WSW,257,0.0,0.0,86,0.00,,,0.00,WeatherCatV1.02B3,2013-05-30 02:31:00,
2013-05-29 21:36:00,75.9,71.4,30.00,WSW,257,0.0,3.0,86,0.00,,,0.00,WeatherCatV1.02B3,2013-05-30 02:36:00,
2013-05-29 21:41:00,75.9,71.4,30.00,West,270,2.0,2.0,86,0.00,,,0.00,WeatherCatV1.02B3,2013-05-30 02:41:00,
2013-05-29 21:46:00,75.8,71.3,30.01,West,259,0.0,1.0,86,0.00,,,0.00,WeatherCatV1.02B3,2013-05-30 02:46:00,
2013-05-29 21:51:00,75.8,71.3,30.00,WSW,254,0.0,5.0,86,0.00,,,0.00,WeatherCatV1.02B3,2013-05-30 02:51:00,
2013-05-29 21:56:00,75.8,71.0,30.01,WSW,255,0.0,3.0,85,0.00,,,0.00,WeatherCatV1.02B3,2013-05-30 02:56:00,
2013-05-29 22:01:00,75.7,70.9,30.01,West,267,0.0,1.0,85,0.00,,,0.00,WeatherCatV1.02B3,2013-05-30 03:01:00,
2013-05-29 22:06:00,75.7,70.9,30.01,West,263,2.0,3.0,85,0.00,,,0.00,WeatherCatV1.02B3,2013-05-30 03:06:00,
2013-05-29 22:11:00,75.8,71.0,30.01,West,279,0.0,3.0,85,0.00,,,0.00,WeatherCatV1.02B3,2013-05-30 03:11:00,
2013-05-29 22:16:00,75.7,70.9,30.01,West,277,0.0,1.0,85,0.00,,,0.00,WeatherCatV1.02B3,2013-05-30 03:16:00,
2013-05-29 22:21:00,75.8,71.0,30.01,WSW,257,0.0,3.0,85,0.00,,,0.00,WeatherCatV1.02B3,2013-05-30 03:21:00,
2013-05-29 22:26:00,75.7,70.5,30.01,West,260,3.0,5.0,84,0.00,,,0.00,WeatherCatV1.02B3,2013-05-30 03:26:00,
2013-05-29 22:31:00,75.8,70.6,30.01,WNW,286,0.0,7.0,84,0.00,,,0.00,WeatherCatV1.02B3,2013-05-30 03:31:00,
2013-05-29 22:36:00,75.8,70.3,30.01,West,262,1.0,3.0,83,0.00,,,0.00,WeatherCatV1.02B3,2013-05-30 03:36:00,
2013-05-29 22:41:00,75.9,70.4,30.01,WSW,251,0.0,0.0,83,0.00,,,0.00,WeatherCatV1.02B3,2013-05-30 03:41:00,
2013-05-29 22:46:00,75.9,70.4,30.01,WNW,297,0.0,2.0,83,0.00,,,0.00,WeatherCatV1.02B3,2013-05-30 03:46:00,
2013-05-29 22:51:00,76.0,70.4,30.01,West,273,0.0,3.0,83,0.00,,,0.00,WeatherCatV1.02B3,2013-05-30 03:51:00,
2013-05-29 22:56:00,76.0,70.4,30.01,WNW,288,0.0,4.0,83,0.00,,,0.00,WeatherCatV1.02B3,2013-05-30 03:56:00,
2013-05-29 23:01:00,76.0,70.4,30.02,West,270,0.0,3.0,83,0.00,,,0.00,WeatherCatV1.02B3,2013-05-30 04:01:00,
2013-05-29 23:06:00,75.9,70.4,30.02,West,273,0.0,5.0,83,0.00,,,0.00,WeatherCatV1.02B3,2013-05-30 04:06:00,
2013-05-29 23:11:00,75.8,70.3,30.02,West,263,4.0,4.0,83,0.00,,,0.00,WeatherCatV1.02B3,2013-05-30 04:11:00,
2013-05-29 23:15:00,75.8,70.3,30.02,West,279,0.0,3.0,83,0.00,,,0.00,WeatherCatV1.02B3,2013-05-30 04:15:00,
2013-05-29 23:20:00,75.7,70.2,30.01,West,267,0.0,5.0,83,0.00,,,0.00,WeatherCatV1.02B3,2013-05-30 04:20:00,
2013-05-29 23:25:00,75.7,70.2,30.02,WSW,254,4.0,6.0,83,0.00,,,0.00,WeatherCatV1.02B3,2013-05-30 04:25:00,
2013-05-29 23:30:00,75.7,70.2,30.01,West,262,4.0,5.0,83,0.00,,,0.00,WeatherCatV1.02B3,2013-05-30 04:30:00,
2013-05-29 23:35:00,75.7,70.2,30.01,West,267,3.0,4.0,83,0.00,,,0.00,WeatherCatV1.02B3,2013-05-30 04:35:00,
2013-05-29 23:40:00,75.6,70.1,30.01,West,262,0.0,8.0,83,0.00,,,0.00,WeatherCatV1.02B3,2013-05-30 04:40:00,
2013-05-29 23:45:00,75.6,70.1,30.02,West,263,0.0,1.0,83,0.00,,,0.00,WeatherCatV1.02B3,2013-05-30 04:45:00,
2013-05-29 23:50:00,75.5,70.0,30.02,West,265,0.0,3.0,83,0.00,,,0.00,WeatherCatV1.02B3,2013-05-30 04:50:00,
2013-05-29 23:55:00,75.5,70.0,30.02,WSW,252,0.0,4.0,83,0.00,,,0.00,WeatherCatV1.02B3,2013-05-30 04:55:00,